Weather History for Kalmar, Sweden

Change the Weather History Date:

Monday, April 7, 2014

  Actual Average Record
Temperature  
Mean Temperature 52 °F -  
Max Temperature 59 °F - - ()
Min Temperature 44 °F - - ()
Degree Days  
Heating Degree Days 14    
Growing Degree Days 2 (Base 50)    
Moisture  
Dew Point 49 °F    
Average Humidity 90    
Maximum Humidity 100    
Minimum Humidity 77    
Precipitation  
Precipitation 0.00 in - - ()
Sea Level Pressure  
Sea Level Pressure 29.82 in    
Wind  
Wind Speed 7 mph ()    
Max Wind Speed 20 mph    
Max Gust Speed -    
Visibility 4.0 miles    
Events Fog , Rain    
T = Trace of Precipitation, MM = Missing Value Source: Averaged Metar Reports

Daily Weather History Graph

Daily Weather History Graph

Search for Another Location

Airport:

Trip Planner

Search our weather history database for the weather conditions in past years. The results will help you decide how hot, cold, wet, or windy it might be!

Date:

Astronomy

Apr. 07, 2014 Rise Set
Actual Time 6:09 AM CEST 7:46 PM CEST
Civil Twilight 5:29 AM CEST 8:26 PM CEST
Nautical Twilight 4:40 AM CEST 9:15 PM CEST
Astronomical Twilight 3:43 AM CEST 10:13 PM CEST
Moon 11:15 AM CEST (4/7) 2:45 AM CEST (4/7)
Length of Visible Light 14h 56m
Length of Day
13h 37m
Waxing Crescent, 51% of the Moon is Illuminated
Apr 7
Waxing Crescent
Apr 15
Full
Apr 22
Last Quarter
Apr 29
New
May 7
First Quarter

Hourly Weather History & Observations

Time (CEST) Temp. Windchill Dew Point Humidity Pressure Visibility Wind Dir Wind Speed Gust Speed Precip Events Conditions
12:20 AM 48.2 °F - 44.6 °F 87% 29.89 in 5.0 mi SSW 5.8 mph - N/A   Scattered Clouds
12:50 AM 48.2 °F - 44.6 °F 87% 29.89 in 4.3 mi South 4.6 mph - N/A   Scattered Clouds
1:20 AM 48.2 °F - 44.6 °F 87% 29.89 in - South 5.8 mph - N/A   Scattered Clouds
1:50 AM 44.6 °F 42.2 °F 42.8 °F 93% 29.89 in 1.5 mi SSE 4.6 mph - N/A   Scattered Clouds
2:20 AM 44.6 °F 41.4 °F 44.6 °F 100% 29.89 in 1.4 mi South 5.8 mph - N/A   Drizzle
2:50 AM 44.6 °F 42.2 °F 44.6 °F 100% 29.89 in 0.9 mi SSE 4.6 mph - N/A   Mostly Cloudy
3:20 AM 46.4 °F 43.5 °F 46.4 °F 100% 29.86 in 0.9 mi South 5.8 mph - N/A   Mostly Cloudy
3:50 AM 46.4 °F 43.5 °F 46.4 °F 100% 29.86 in 1.0 mi South 5.8 mph - N/A   Overcast
4:20 AM 46.4 °F 43.5 °F 46.4 °F 100% 29.86 in 0.9 mi South 5.8 mph - N/A Rain Light Rain
4:50 AM 46.4 °F 43.5 °F 46.4 °F 100% 29.86 in 0.8 mi South 5.8 mph - N/A   Overcast
5:20 AM 46.4 °F 43.5 °F 46.4 °F 100% 29.83 in 0.7 mi SSE 5.8 mph - N/A   Mostly Cloudy
5:50 AM 46.4 °F 42.9 °F 46.4 °F 100% 29.83 in 0.6 mi SSE 6.9 mph - N/A   Mostly Cloudy
6:20 AM 46.4 °F 42.9 °F 46.4 °F 100% 29.83 in 0.7 mi South 6.9 mph - N/A   Overcast
6:50 AM 46.4 °F 42.9 °F 46.4 °F 100% 29.83 in 0.7 mi South 6.9 mph - N/A   Overcast
7:20 AM 46.4 °F 42.9 °F 46.4 °F 100% 29.83 in 0.7 mi SSE 6.9 mph - N/A   Mostly Cloudy
7:50 AM 44.6 °F 39.2 °F 44.6 °F 100% 29.83 in 0.6 mi South 10.4 mph - N/A   Overcast
8:20 AM 46.4 °F 42.4 °F 46.4 °F 100% 29.83 in 0.5 mi South 8.1 mph - N/A Fog Fog
8:50 AM 46.4 °F 42.4 °F 46.4 °F 100% 29.83 in 0.3 mi South 8.1 mph - N/A Fog Fog
9:20 AM 48.2 °F - 48.2 °F 100% 29.80 in 0.5 mi South 8.1 mph - N/A Fog Fog
9:50 AM 48.2 °F - 48.2 °F 100% 29.80 in 0.9 mi SSE 6.9 mph - N/A   Drizzle
10:20 AM 50.0 °F - 50.0 °F 100% 29.80 in 1.6 mi South 6.9 mph - N/A   Light Drizzle
10:50 AM 51.8 °F - 51.8 °F 100% 29.80 in - SSE 5.8 mph - N/A   Overcast
11:20 AM 55.4 °F - 53.6 °F 94% 29.80 in 6.2 mi WSW 8.1 mph - N/A   Overcast
11:50 AM 57.2 °F - 53.6 °F 88% 29.80 in 6.2 mi WSW 10.4 mph - N/A   Overcast
12:20 PM 57.2 °F - 53.6 °F 88% 29.80 in 6.2 mi SW 9.2 mph - N/A Rain Light Rain
12:50 PM 57.2 °F - 53.6 °F 88% 29.80 in 6.2 mi SW 8.1 mph - N/A Rain Light Rain
1:20 PM 57.2 °F - 53.6 °F 88% 29.80 in 6.2 mi WSW 10.4 mph - N/A   Mostly Cloudy
1:50 PM 59.0 °F - 53.6 °F 82% 29.80 in 6.2 mi West 11.5 mph - N/A   Mostly Cloudy
2:20 PM 59.0 °F - 53.6 °F 82% 29.80 in 6.2 mi West 12.7 mph - N/A   Mostly Cloudy
2:50 PM 59.0 °F - 51.8 °F 77% 29.80 in 6.2 mi West 16.1 mph - N/A   Scattered Clouds
3:20 PM 59.0 °F - 51.8 °F 77% 29.80 in 6.2 mi WSW 15.0 mph - N/A   Mostly Cloudy
3:50 PM 59.0 °F - 51.8 °F 77% 29.80 in 6.2 mi West 19.6 mph - N/A   Scattered Clouds
4:20 PM 59.0 °F - 51.8 °F 77% 29.80 in 6.2 mi West 13.8 mph - N/A   Mostly Cloudy
4:50 PM 59.0 °F - 51.8 °F 77% 29.77 in 6.2 mi West 18.4 mph - N/A   Scattered Clouds
5:20 PM 59.0 °F - 51.8 °F 77% 29.77 in 6.2 mi West 15.0 mph - N/A   Mostly Cloudy
5:50 PM 59.0 °F - 51.8 °F 77% 29.77 in 6.2 mi West 12.7 mph - N/A   Mostly Cloudy
6:20 PM 57.2 °F - 51.8 °F 82% 29.77 in 6.2 mi West 12.7 mph - N/A   Overcast
7:20 PM 55.4 °F - 50.0 °F 82% 29.80 in 6.2 mi West 16.1 mph - N/A   Mostly Cloudy
7:50 PM 55.4 °F - 50.0 °F 82% 29.80 in 6.2 mi West 11.5 mph - N/A   Mostly Cloudy
8:20 PM 55.4 °F - 50.0 °F 82% 29.80 in 6.2 mi West 11.5 mph - N/A   Mostly Cloudy
8:50 PM 53.6 °F - 50.0 °F 88% 29.80 in 6.2 mi West 11.5 mph - N/A   Overcast
9:20 PM 53.6 °F - 50.0 °F 88% 29.80 in 6.2 mi West 10.4 mph - N/A   Overcast
9:50 PM 53.6 °F - 48.2 °F 82% 29.80 in 6.2 mi West 10.4 mph - N/A   Overcast
10:20 PM 53.6 °F - 48.2 °F 82% 29.80 in 6.2 mi West 9.2 mph - N/A   Overcast
10:50 PM 53.6 °F - 48.2 °F 82% 29.83 in 6.2 mi West 8.1 mph - N/A   Overcast
11:20 PM 53.6 °F - 48.2 °F 82% 29.83 in 6.2 mi West 5.8 mph - N/A   Overcast
11:50 PM 53.6 °F - 48.2 °F 82% 29.83 in 6.2 mi WNW 3.5 mph - N/A   Overcast